Granite Falls, MN

8:54 PM CST on December 07, 2019 (GMT -0600)
Granite Falls

Weather History for KGDB - October, 2019

Change the Weather History Date:

Saturday, October 26, 2019

  Actual Average (WUND) Record (WUND)
Temperature  
Mean Temperature 52 °F -  
Max Temperature 63 °F - - (-1)
Min Temperature 41 °F - - (-1)
Degree Days  
Heating Degree Days 13    
Growing Degree Days 2 (Base 50)    
Moisture  
Dew Point 33 °F    
Average Humidity 56    
Maximum Humidity 81    
Minimum Humidity 31    
Precipitation  
Precipitation 0.00 in - - ()
Sea Level Pressure  
Sea Level Pressure 29.75 in    
Wind  
Wind Speed 12 mph (SSE)    
Max Wind Speed 22 mph    
Max Gust Speed 28 mph    
Visibility 8 miles    
Events      
Averages and records for this station are not official NWS values.
T = Trace of Precipitation, MM = Missing Value Source: NWS Daily Summary

Daily Weather History Graph

Daily Weather History Graph

Search for Another Location

Airport or City:

Astronomy

Oct. 26, 2019 Rise Set
Actual Time 7:51 AM CDT 6:19 PM CDT
Civil Twilight 7:21 AM CDT 6:49 PM CDT
Nautical Twilight 6:47 AM CDT 7:24 PM CDT
Astronomical Twilight 6:13 AM CDT 7:57 PM CDT
Moon 5:40 AM CDT (10/26) 6:02 PM CDT (10/26)
Length of Visible Light 11h 28m
Length of Day
10h 28m
Waning Crescent, 3% of the Moon is Illuminated
Oct 26
Waning Crescent
Oct 27
New
Nov 4
First Quarter
Nov 12
Full
Nov 19
Last Quarter

Hourly Weather History & Observations

Time (CDT) Temp. Windchill Dew Point Humidity Pressure Visibility Wind Dir Wind Speed Gust Speed Precip Events Conditions
12:15 AM 44.2 °F 38.8 °F 32.4 °F 63% 29.94 in 7.0 mi South 10.4 mph - N/A   Clear
12:35 AM 44.4 °F 39.0 °F 32.0 °F 62% 29.94 in 7.0 mi South 10.4 mph - N/A   Clear
12:36 AM 44.4 °F 39.0 °F 32.0 °F 62% 29.94 in 7.0 mi South 10.4 mph - N/A   Clear
12:55 AM 44.1 °F 38.6 °F 32.0 °F 63% 29.93 in 7.0 mi South 10.4 mph 16.1 mph N/A   Clear
12:56 AM 44.1 °F 38.6 °F 32.0 °F 63% 29.93 in 7.0 mi South 10.4 mph 16.1 mph N/A   Clear
1:18 AM 44.6 °F 39.2 °F 32.0 °F 61% 29.92 in 10.0 mi South 10.4 mph 16.1 mph N/A   Clear
1:55 AM 43.7 °F 38.1 °F 32.0 °F 63% 29.90 in 7.0 mi SSE 10.4 mph - N/A   Clear
1:56 AM 43.7 °F 38.1 °F 32.0 °F 63% 29.90 in 7.0 mi SSE 10.4 mph - N/A   Clear
2:15 AM 42.8 °F 37.0 °F 32.0 °F 66% 29.89 in 7.0 mi SSE 10.4 mph - N/A   Clear
2:16 AM 42.8 °F 37.0 °F 32.0 °F 66% 29.89 in 7.0 mi SSE 10.4 mph - N/A   Clear
2:35 AM 43.0 °F 37.2 °F 32.0 °F 65% 29.89 in 7.0 mi SSE 10.4 mph - N/A   Clear
2:40 AM 43.2 °F 37.4 °F 32.0 °F 65% 29.89 in 7.0 mi SSE 10.4 mph - N/A   Clear
2:57 AM 42.3 °F 36.8 °F 32.0 °F 67% 29.88 in 7.0 mi SSE 9.2 mph - N/A   Clear
3:15 AM 41.9 °F 36.3 °F 31.8 °F 67% 29.88 in 7.0 mi SSE 9.2 mph - N/A   Clear
3:35 AM 41.9 °F 36.9 °F 32.0 °F 68% 29.87 in 7.0 mi SSE 8.1 mph - N/A   Clear
3:36 AM 41.9 °F 36.9 °F 32.0 °F 68% 29.87 in 7.0 mi SSE 8.1 mph - N/A   Clear
3:55 AM 41.9 °F 35.9 °F 32.0 °F 68% 29.86 in 7.0 mi SSE 10.4 mph - N/A   Clear
3:56 AM 41.9 °F 35.9 °F 32.0 °F 68% 29.86 in 10.0 mi SSE 10.4 mph - N/A   Clear
4:18 AM 41.9 °F 35.9 °F 31.8 °F 67% 29.85 in 7.0 mi SSE 10.4 mph - N/A   Clear
4:37 AM 41.9 °F 35.4 °F 31.6 °F 67% 29.85 in 7.0 mi SSE 11.5 mph - N/A   Clear
4:56 AM 41.7 °F 35.6 °F 31.5 °F 67% 29.84 in 7.0 mi SSE 10.4 mph - N/A   Clear
5:15 AM 41.4 °F 34.7 °F 31.5 °F 68% 29.83 in 10.0 mi SSE 11.5 mph - N/A   Clear
5:16 AM 41.5 °F 35.4 °F 31.5 °F 67% 29.83 in 10.0 mi SSE 10.4 mph - N/A   Clear
5:35 AM 41.9 °F 35.4 °F 30.9 °F 65% 29.82 in 7.0 mi SSE 11.5 mph 17.3 mph N/A   Clear
5:39 AM 41.9 °F 35.0 °F 30.9 °F 65% 29.82 in 7.0 mi SSE 12.7 mph 17.3 mph N/A   Clear
5:58 AM 41.9 °F 35.4 °F 30.9 °F 65% 29.82 in 7.0 mi SSE 11.5 mph - N/A   Clear
6:16 AM 41.9 °F 35.4 °F 30.7 °F 65% 29.81 in 7.0 mi SSE 11.5 mph 18.4 mph N/A   Clear
6:35 AM 41.9 °F 35.9 °F 30.7 °F 65% 29.81 in 10.0 mi SSE 10.4 mph - N/A   Clear
6:36 AM 41.9 °F 35.9 °F 30.7 °F 65% 29.80 in 10.0 mi SSE 10.4 mph - N/A   Clear
6:55 AM 41.9 °F 35.9 °F 30.6 °F 64% 29.79 in 7.0 mi SSE 10.4 mph 17.3 mph N/A   Clear
7:35 AM 41.9 °F 35.4 °F 30.7 °F 65% 29.78 in 7.0 mi SSE 11.5 mph 16.1 mph N/A   Clear
7:55 AM 41.9 °F 35.4 °F 30.7 °F 65% 29.76 in 10.0 mi SSE 11.5 mph - N/A   Clear
8:15 AM 41.9 °F 35.4 °F 30.6 °F 64% 29.76 in 10.0 mi SSE 11.5 mph 17.3 mph N/A   Clear
8:16 AM 42.1 °F 35.7 °F 30.6 °F 64% 29.76 in 10.0 mi SSE 11.5 mph 17.3 mph N/A   Clear
8:39 AM 43.2 °F 37.4 °F 31.1 °F 62% 29.76 in 7.0 mi SSE 10.4 mph - N/A   Clear
8:57 AM 43.9 °F 38.8 °F 31.3 °F 61% 29.76 in 4.0 mi SE 9.2 mph - N/A   Haze
9:16 AM 44.6 °F 38.8 °F 31.8 °F 61% 29.76 in 10.0 mi SSE 11.5 mph 16.1 mph N/A   Clear
9:35 AM 46.0 °F 40.2 °F 32.0 °F 58% 29.75 in 7.0 mi SSE 12.7 mph 17.3 mph N/A   Clear
9:36 AM 46.0 °F 39.9 °F 32.0 °F 58% 29.75 in 7.0 mi SSE 13.8 mph 18.4 mph N/A   Clear
9:55 AM 47.5 °F - 32.0 °F 55% 29.75 in 7.0 mi SSE 15.0 mph 19.6 mph N/A   Clear
10:17 AM 49.5 °F - 32.4 °F 52% 29.74 in 7.0 mi SSE 12.7 mph 19.6 mph N/A   Clear
10:36 AM 50.9 °F - 32.0 °F 48% 29.74 in 7.0 mi SSE 17.3 mph 21.9 mph N/A   Clear
10:55 AM 52.7 °F - 32.0 °F 45% 29.73 in 7.0 mi SSE 16.1 mph 21.9 mph N/A   Clear
10:56 AM 52.7 °F - 32.0 °F 45% 29.73 in 7.0 mi South 16.1 mph 21.9 mph N/A   Clear
11:15 AM 54.5 °F - 31.5 °F 42% 29.72 in 7.0 mi SSE 18.4 mph 24.2 mph N/A   Clear
11:16 AM 54.7 °F - 31.5 °F 41% 29.72 in 7.0 mi SSE 19.6 mph 24.2 mph N/A   Clear
11:39 AM 56.3 °F - 31.3 °F 39% 29.72 in 10.0 mi SSE 17.3 mph 21.9 mph N/A   Clear
11:56 AM 56.8 °F - 30.9 °F 37% 29.71 in 10.0 mi SSE 19.6 mph 27.6 mph N/A   Clear
12:16 PM 58.1 °F - 30.9 °F 36% 29.71 in 10.0 mi SSE 18.4 mph 25.3 mph N/A   Clear
12:35 PM 59.4 °F - 31.6 °F 35% 29.71 in 10.0 mi SSE 16.1 mph 25.3 mph N/A   Clear
12:36 PM 59.4 °F - 31.5 °F 35% 29.70 in 10.0 mi SSE 19.6 mph 25.3 mph N/A   Clear
12:55 PM 60.1 °F - 30.7 °F 33% 29.69 in 10.0 mi SSE 15.0 mph 25.3 mph N/A   Clear
12:59 PM 60.6 °F - 31.1 °F 33% 29.69 in 10.0 mi SSE 20.7 mph 25.3 mph N/A   Clear
1:18 PM 61.2 °F - 30.7 °F 32% 29.67 in 7.0 mi SSE 17.3 mph 26.5 mph N/A   Clear
1:35 PM 62.6 °F - 31.3 °F 31% 29.67 in 7.0 mi SE 19.6 mph 25.3 mph N/A   Clear
1:55 PM 62.1 °F - 31.1 °F 31% 29.67 in 10.0 mi SSE 19.6 mph 25.3 mph N/A   Clear
1:56 PM 62.1 °F - 31.1 °F 31% 29.67 in 10.0 mi SE 19.6 mph 25.3 mph N/A   Clear
2:15 PM 62.6 °F - 31.1 °F 31% 29.66 in 10.0 mi SE 19.6 mph 27.6 mph N/A   Clear
2:16 PM 62.6 °F - 31.1 °F 31% 29.66 in 10.0 mi SE 19.6 mph 27.6 mph N/A   Clear
2:38 PM 62.8 °F - 31.3 °F 31% 29.65 in 7.0 mi SSE 20.7 mph 27.6 mph N/A   Clear
2:57 PM 63.0 °F - 32.0 °F 31% 29.65 in 10.0 mi SSE 17.3 mph 24.2 mph N/A   Clear
3:15 PM 63.0 °F - 32.2 °F 32% 29.65 in 10.0 mi SE 17.3 mph 24.2 mph N/A   Clear
3:35 PM 62.1 °F - 32.0 °F 32% 29.64 in 10.0 mi SSE 16.1 mph 23.0 mph N/A   Clear
3:36 PM 62.1 °F - 32.0 °F 32% 29.64 in 7.0 mi SSE 16.1 mph 23.0 mph N/A   Clear
3:55 PM 62.8 °F - 32.2 °F 32% 29.65 in 10.0 mi SE 11.5 mph 18.4 mph N/A   Clear
4:17 PM 61.3 °F - 32.5 °F 34% 29.64 in 7.0 mi SE 12.7 mph 19.6 mph N/A   Clear
4:35 PM 60.8 °F - 32.9 °F 35% 29.64 in 10.0 mi SE 12.7 mph 18.4 mph N/A   Clear
4:55 PM 60.3 °F - 34.0 °F 37% 29.65 in 7.0 mi SSE 9.2 mph 16.1 mph N/A   Clear
4:56 PM 60.3 °F - 34.0 °F 37% 29.65 in 10.0 mi SE 9.2 mph 16.1 mph N/A   Clear
5:15 PM 59.4 °F - 34.2 °F 39% 29.65 in 7.0 mi SE 10.4 mph - N/A   Clear
5:16 PM 59.4 °F - 34.3 °F 39% 29.65 in 7.0 mi SE 8.1 mph - N/A   Clear
5:38 PM 57.7 °F - 35.4 °F 43% 29.66 in 7.0 mi SE 8.1 mph - N/A   Clear
5:57 PM 55.8 °F - 35.6 °F 47% 29.66 in 7.0 mi SE 8.1 mph - N/A   Clear
6:16 PM 54.5 °F - 35.2 °F 48% 29.66 in 7.0 mi SE 8.1 mph - N/A   Clear
6:35 PM 52.2 °F - 35.2 °F 53% 29.67 in 7.0 mi SE 8.1 mph - N/A   Clear
6:36 PM 52.2 °F - 35.2 °F 53% 29.67 in 7.0 mi SE 8.1 mph - N/A   Clear
6:55 PM 50.9 °F - 35.2 °F 55% 29.66 in 10.0 mi SE 9.2 mph - N/A   Clear
7:16 PM 49.1 °F - 35.4 °F 59% 29.67 in 7.0 mi SE 6.9 mph - N/A   Clear
7:35 PM 47.5 °F - 35.1 °F 62% 29.68 in 7.0 mi SE 8.1 mph - N/A   Clear
7:36 PM 47.3 °F - 34.9 °F 62% 29.68 in 7.0 mi SE 8.1 mph - N/A   Clear
7:55 PM 48.6 °F - 35.4 °F 60% 29.67 in 7.0 mi SE 8.1 mph - N/A   Clear
7:56 PM 48.6 °F - 35.4 °F 60% 29.67 in 7.0 mi SE 6.9 mph - N/A   Clear
8:15 PM 45.0 °F 43.5 °F 34.7 °F 67% 29.68 in 7.0 mi SSE 3.5 mph - N/A   Clear
8:20 PM 44.1 °F 41.5 °F 35.1 °F 71% 29.68 in 7.0 mi SSW 4.6 mph - N/A   Clear
8:37 PM 45.1 °F 42.0 °F 35.4 °F 69% 29.68 in 7.0 mi South 5.8 mph - N/A   Clear
8:55 PM 44.2 °F 42.7 °F 34.9 °F 70% 29.69 in 7.0 mi SW 3.5 mph - N/A   Clear
9:15 PM 42.8 °F 36.6 °F 36.5 °F 78% 29.69 in 7.0 mi WNW 11.5 mph - N/A   Clear
9:16 PM 43.3 °F 37.2 °F 37.0 °F 78% 29.69 in 7.0 mi WNW 11.5 mph - N/A   Clear
9:35 PM 44.6 °F 39.7 °F 38.3 °F 79% 29.70 in 10.0 mi NW 9.2 mph - N/A   Clear
9:36 PM 44.6 °F 39.2 °F 38.3 °F 79% 29.70 in 10.0 mi NW 10.4 mph - N/A   Clear
9:58 PM 46.0 °F 39.9 °F 39.4 °F 78% 29.71 in 10.0 mi NW 13.8 mph 24.2 mph N/A   Clear
10:17 PM 45.5 °F 37.8 °F 39.4 °F 79% 29.72 in 10.0 mi NW 19.6 mph 24.2 mph N/A   Clear
10:36 PM 45.0 °F 38.2 °F 39.2 °F 80% 29.73 in 7.0 mi WNW 15.0 mph 27.6 mph N/A   Clear
10:55 PM 44.2 °F 36.2 °F 38.7 °F 81% 29.74 in 7.0 mi NW 19.6 mph 25.3 mph N/A   Clear
10:56 PM 44.2 °F 35.7 °F 38.5 °F 80% 29.74 in 7.0 mi NW 21.9 mph 27.6 mph N/A   Clear
11:15 PM 43.9 °F 36.2 °F 37.4 °F 78% 29.74 in 7.0 mi NW 17.3 mph 24.2 mph N/A   Clear
11:56 PM 42.4 °F 34.1 °F 35.2 °F 76% 29.75 in 7.0 mi NW 18.4 mph 26.5 mph N/A   Clear